Location: Newark
(52.3735°N, 16.9806°E)
Time: 04:35:49
(UTC+00:00)

LilacSat-2 - Pass Details

Date: 05 December 2021
Orbit: 511 x 532 km, 97.5° (Epoch: 16 January)

Event Time Altitude Azimuth Distance (km) Brightness Sun altitude
Rises 17:13:13 0° 221° (SW) 2,635 ? -22.1°
Reaches altitude 10° 17:17:07 10° 263° (W) 1,763 ? -22.7°
Maximum altitude 17:17:52 11° 274° (W) 1,735 ? -22.9°
Drops below altitude 10° 17:18:38 10° 286° (WNW) 1,769 ? -23.0°
Sets 17:22:36 0° 327° (NNW) 2,674 ? -23.6°
